Home   Weather   Rafsanjan   Past weeks

Flag for Iran Past Weather in Rafsanjan, Iran — Yesterday and Last 2 Weeks

Now
52 °F

Clear.


Feels Like: 48 °F
Forecast: 46 / 74 °F
Wind: 12 mph from Southwest

Location: Kerman Airport

Current Time: Dec 3, 2016 at 5:57:51 am

Latest Report: Dec 3, 2016 at 4:30 am


Visibility: 10 mi

Pressure: 30.30 "Hg (25.25 "Hg at 1515m altitude)

Humidity: 44%

Dew Point: 30 °F

Location of RafsanjanLocation

Past Weather in Rafsanjan — Graph

°F

Rafsanjan Temperature Yesterday

Maximum temperature yesterday: 73 °F (at 11:30 am)
Minimum temperature yesterday: 39 °F (at 5:30 am)
Average temperature yesterday: 57 °F

High & Low Weather Summary for the Past Weeks

 TemperatureHumidityPressure
High79 °F (Nov 18, 2:30 pm)100% (Nov 26, 11:30 pm)30.39 "Hg (Nov 26, 11:30 pm)
Low21 °F (Nov 24, 10:30 pm)4% (Nov 19, 10:30 am)30.12 "Hg (Nov 19, 2:30 pm)
Average44 °F47%30.26 "Hg
* Reported Nov 18 4:30 am — Dec 3 4:30 am, Rafsanjan, Weather by CustomWeather, © 2016

Note: Actual official high and low records may vary slightly from our data, if they occured in-between our weather recording intervals... More about our weather records

Advertising

Rafsanjan Weather History for the Previous 24 Hours

Scroll right to see more
 ConditionsComfort  
Time TempWeatherWind HumidityBarometerVisibility
4:30 am
Sat, Dec 3
52 °FClear.12 mph44%30.30 "Hg10 mi
3:30 am54 °FClear.12 mph41%30.30 "Hg10 mi
2:30 am55 °FClear.14 mph38%30.30 "Hg10 mi
1:30 am50 °FClear.7 mph43%30.30 "Hg10 mi
12:30 am54 °FClear.9 mph38%30.30 "Hg10 mi
11:30 pm
Fri, Dec 2
54 °FClear.9 mph38%30.33 "Hg10 mi
10:30 pm52 °FClear.5 mph38%30.30 "Hg10 mi
9:30 pm57 °FClear.7 mph33%30.30 "Hg10 mi
8:30 pm63 °FClear.12 mph30%30.30 "Hg10 mi
7:30 pm63 °FPassing clouds.7 mph27%30.30 "HgN/A
6:30 pm66 °FPassing clouds.12 mph24%30.27 "HgN/A
5:30 pm68 °FPassing clouds.12 mph23%30.27 "HgN/A
4:30 pm70 °FScattered clouds.16 mph20%30.24 "HgN/A
3:30 pm72 °FScattered clouds.18 mph17%30.21 "HgN/A
2:30 pm73 °FScattered clouds.9 mph15%30.21 "HgN/A
1:30 pm72 °FPartly sunny.7 mph20%30.21 "HgN/A
12:30 pm73 °FScattered clouds.9 mph20%30.24 "HgN/A
11:30 am73 °FScattered clouds.7 mph22%30.30 "HgN/A
10:30 am70 °FScattered clouds.7 mph27%30.33 "HgN/A
9:30 am61 °FPassing clouds.7 mph34%30.33 "HgN/A
8:30 am52 °FScattered clouds.5 mph47%30.33 "HgN/A
7:30 am45 °FScattered clouds.7 mph49%30.33 "HgN/A
6:30 am41 °FClear.5 mph45%30.33 "Hg10 mi
5:30 am39 °FClear.5 mph52%30.30 "Hg10 mi
Weather by CustomWeather, © 2016

See weather overviewHow to use our weather pages